[[{"header":{"parameterUnit":"m.s-1","parameterCategory":1,"la1":30.2992,"la2":30.254,"lo1":-89.0895,"lo2":-89.0443,"dy":0.0025,"dx":0.0025,"nx":19,"ny":19,"refTime":"2026-04-22T21:00:00:Z","depth":0,"parameterNumber":2,"parameterNumberName":"U-component_of_WINDS"},"data":[0,0,0,-3.7062,-3.7064,-3.7134,-3.7135,-3.7237,-3.7238,0,0,0,0,0,0,0,0,0,0,0,-3.7049,-3.705,-3.7062,-3.7064,-3.7134,-3.7135,-3.7237,-3.7238,0,0,0,0,0,0,0,0,0,0,0,-3.7049,-3.705,-3.7051,-3.7064,-3.7134,-3.7135,-3.7237,-3.7179,0,0,0,0,0,0,0,0,0,0,-3.7108,-3.7104,-3.7049,-3.7051,-3.7065,-3.7134,-3.7135,-3.7176,-3.7182,-3.721,0,-3.7238,0,-3.724,-3.7246,-3.7246,0,0,0,-3.7057,-3.7099,-3.7111,-3.7051,-3.7065,-3.7134,-3.7101,-3.7179,-3.7187,-3.7219,-3.724,-3.7243,-3.7242,-3.7246,-3.7247,-3.7434,-3.7435,0,0,-3.7053,-3.7066,-3.7106,-3.7116,-3.7107,-3.7098,-3.7103,-3.7183,-3.7206,-3.724,-3.7245,-3.7243,-3.7247,-3.7248,-3.7433,-3.7434,0,0,0,-3.7046,-3.7063,-3.7073,-3.7112,-3.7124,-3.7101,-3.7106,-3.7203,-3.7205,-3.7246,-3.7245,-3.7248,-3.7249,-3.7431,-3.7433,-3.7504,0,0,0,-3.7044,-3.7059,-3.7072,-3.708,-3.7123,-3.7164,-3.7123,-3.7199,-3.7208,-3.7244,-3.7248,-3.725,-3.743,-3.7432,-3.7499,-3.7534,0,0,0,-3.7042,-3.7059,-3.7072,-3.708,-3.7111,-3.7163,-3.7169,-3.7201,-3.7207,-3.7246,-3.7251,-3.7429,-3.7432,-3.7495,-3.7527,-3.7587,0,0,0,-3.7042,-3.7133,-3.7073,-3.7174,-3.7111,-3.7207,-3.7169,-3.7239,-3.7281,-3.7248,-3.743,-3.7433,-3.7493,-3.7523,-3.7582,-3.7639,-3.7664,0,0,-3.7163,-3.7148,-3.7206,-3.7155,-3.7264,-3.7195,-3.7314,-3.734,-3.7332,-3.74,-3.7404,-3.75,-3.7527,-3.7586,-3.7801,-3.7821,0,0,0,-3.7248,-3.729,-3.7317,-3.7358,-3.7381,-3.7403,-3.741,-3.742,-3.7478,-3.737,-3.7538,-3.7553,-3.7588,-3.7614,-3.7631,-3.7659,-3.7446,-3.7446,-3.7445,-3.7436,-3.7422,-3.7517,-3.7513,-3.7553,-3.756,-3.7591,-3.7606,-3.7578,-3.7619,-3.7638,-3.7771,-3.7802,-3.7815,-3.7844,-3.7668,-3.7668,-3.7668,-3.7669,-3.7611,-3.7667,-3.7632,-3.7711,-3.7696,-3.7762,-3.7773,-3.7752,-3.7811,-3.7754,-3.7784,-3.7722,-3.7837,-3.7862,-3.7674,-3.7673,-3.7672,-3.7672,-3.7671,-3.7731,-3.7756,-3.7768,-3.7827,-3.7874,-3.7866,-3.7925,-3.7909,-3.7894,-3.7923,-3.7942,-3.7941,-3.7937,-3.7934,-3.7934,-3.7935,-3.7935,-3.7935,-3.7936,-3.785,-3.7861,-3.7914,-3.7948,-3.7973,-3.8003,-3.8013,-3.8037,-3.8059,-3.8042,-3.8042,-3.8011,-3.7851,-3.7811,-3.7943,-3.7941,-3.794,-3.794,-3.7939,-3.8031,-3.7988,-3.8069,-3.8094,-3.8133,-3.8181,-3.8161,-3.8211,-3.8228,-3.8258,-3.8222,-3.8106,-3.8089,-3.8075,-3.8041,-3.8225,-3.8225,-3.8225,-3.8225,-3.8131,-3.8122,-3.8201,-3.8243,-3.8282,-3.8273,-3.8364,-3.8372,-3.8374,-3.8384,-3.8356,-3.831,-3.8297,-3.8287,-3.8269,-3.8237,-3.8466,-3.8466,-3.8467,-3.8241,-3.8235,-3.8316,-3.8319,-3.8349,-3.8374,-3.8459,-3.8508,-3.8501,-3.8476,-3.8392,-3.8381,-3.8308,-3.8285,-3.8255,-3.8228,-3.8169,0,0]},{"header":{"parameterUnit":"m.s-1","parameterCategory":1,"la1":30.2992,"la2":30.254,"lo1":-89.0895,"lo2":-89.0443,"dy":0.0025,"dx":0.0025,"nx":19,"ny":19,"refTime":"2026-04-22T21:00:00:Z","depth":0,"parameterNumber":3,"parameterNumberName":"V-component_of_WINDS"},"data":[0,0,0,3.3995,3.3994,3.3964,3.3964,3.3929,3.3929,0,0,0,0,0,0,0,0,0,0,0,3.4007,3.4007,3.3995,3.3994,3.3965,3.3964,3.3929,3.3929,0,0,0,0,0,0,0,0,0,0,0,3.4007,3.4007,3.4007,3.3994,3.3965,3.3964,3.393,3.395,0,0,0,0,0,0,0,0,0,0,3.3978,3.3995,3.4007,3.4007,3.3994,3.3965,3.3964,3.3951,3.3949,3.3945,0,3.3944,0,3.3936,3.3927,3.3927,0,0,0,3.399,3.3996,3.3985,3.4007,3.3994,3.3965,3.3977,3.395,3.3947,3.3942,3.3944,3.3942,3.3936,3.3927,3.3927,3.3922,3.3922,0,0,3.3992,3.4004,3.3987,3.3984,3.3991,3.3978,3.3976,3.3948,3.395,3.3944,3.3941,3.3935,3.3927,3.3927,3.3921,3.3922,0,0,0,3.3999,3.4005,3.3994,3.3985,3.398,3.3977,3.3975,3.3951,3.3947,3.3941,3.3935,3.3927,3.3926,3.3921,3.3922,3.3941,0,0,0,3.4,3.4009,3.3995,3.4002,3.3981,3.3966,3.3979,3.3949,3.3945,3.3935,3.3927,3.3926,3.3921,3.3921,3.394,3.3948,0,0,0,3.4008,3.401,3.4007,3.4002,3.3991,3.3966,3.396,3.3948,3.3942,3.3927,3.3926,3.3921,3.3921,3.3939,3.3946,3.395,0,0,0,3.4019,3.4024,3.4008,3.4011,3.3991,3.3979,3.396,3.395,3.394,3.3927,3.3921,3.3922,3.3939,3.3945,3.3949,3.3955,3.3958,0,0,3.4031,3.4025,3.4026,3.4011,3.4006,3.3983,3.3979,3.3957,3.3944,3.3929,3.3929,3.394,3.3946,3.395,3.3976,3.3979,0,0,0,3.4034,3.4034,3.403,3.4023,3.4008,3.3996,3.3974,3.3966,3.3954,3.394,3.3943,3.3946,3.3947,3.3949,3.3952,3.3952,3.3923,3.3923,3.3923,3.4066,3.4052,3.4052,3.4033,3.4026,3.4005,3.3997,3.3982,3.3967,3.3968,3.3963,3.3982,3.3985,3.3986,3.3987,3.3966,3.3966,3.3966,3.3966,3.4082,3.408,3.4063,3.4058,3.4041,3.4035,3.4015,3.4005,3.3995,3.3984,3.3984,3.3972,3.399,3.399,3.3967,3.3967,3.3967,3.3967,3.3966,3.4101,3.4098,3.409,3.4078,3.407,3.4051,3.4044,3.4029,3.4014,3.4015,3.4008,3.4007,3.4004,3.4013,3.4013,3.4013,3.4013,3.4013,3.4013,3.4124,3.4114,3.4111,3.4098,3.4091,3.4081,3.406,3.4052,3.404,3.4029,3.4029,3.4014,3.3996,3.3991,3.4014,3.4014,3.4014,3.4014,3.4014,3.4144,3.4137,3.4133,3.4127,3.4109,3.4103,3.4084,3.407,3.4062,3.4059,3.4044,3.4034,3.4026,3.4023,3.4019,3.4048,3.4048,3.4048,3.4048,3.4159,3.4155,3.4147,3.4139,3.4128,3.4112,3.4105,3.409,3.4071,3.4065,3.4059,3.4053,3.4051,3.4044,3.4041,3.4037,3.407,3.407,3.407,3.4171,3.4165,3.4163,3.4148,3.4134,3.4122,3.4115,3.4104,3.4082,3.407,3.4059,3.4058,3.4048,3.4046,3.4032,3.4029,3.4021,0,0]}]]